Probability
0 0 0 0 0 0 0 0 0 0 0 0 0 0 0 0 0 0 0 0 0 0 0 0 0 0 0 1 0 0 0 0 0 0 0 0 0 0 0 0 0 0 0 0 0 0 0 0 0
0 0 0 0 0 0 0 0 0 0 0 0 0 0 0 0 0 0 0 0 0 0 0 0 0 0 1 1 1 0 0 0 0 0 0 0 0 0 0 0 0 0 0 0 0 0 0 0 0
0 0 0 0 0 0 0 0 0 0 0 0 0 0 0 0 0 0 0 0 0 0 0 0 0 0 1 2 2 1 0 0 0 0 0 0 0 0 0 0 0 0 0 0 0 0 0 0 0
0 0 0 0 0 0 0 0 0 0 0 0 0 0 0 0 0 0 0 0 0 0 0 0 0 0 0 1 2 1 0 0 0 0 0 0 0 0 0 0 0 0 0 0 0 0 0 0 0
0 0 0 0 0 0 0 0 0 0 0 0 0 0 0 0 0 0 0 0 0 0 0 0 0 0 0 0 1 1 0 0 0 0 0 0 0 0 0 0 0 0 0 0 0 0 0 0 0
0 0 0 0 0 0 0 0 0 0 0 0 0 0 0 0 0 0 0 0 0 0 0 0 0 0 0 0 0 0 0 0 0 0 0 0 0 0 0 0 0 0 0 0 0 0 0 0 0
0 0 0 0 0 0 0 0 0 0 0 0 0 0 1 0 0 0 0 0 0 0 0 0 0 0 0 0 0 0 0 0 0 0 0 0 0 0 0 0 0 0 0 0 0 0 0 0 0
0 0 0 0 0 0 0 0 0 0 0 0 0 0 1 1 0 0 1 1 1 1 1 0 0 0 0 0 0 0 0 0 0 0 0 0 0 0 0 0 0 0 0 0 0 0 0 0 0
0 0 0 0 0 0 0 0 0 0 0 0 0 0 1 1 1 0 2 2 1 1 1 0 0 0 0 0 0 0 0 0 0 0 0 0 0 0 0 0 0 0 0 0 0 0 0 0 0
0 0 0 0 0 0 0 0 0 0 0 0 0 1 2 2 1 0 1 2 1 1 0 0 0 0 0 0 0 0 0 0 0 0 0 0 0 0 0 0 0 0 0 0 0 0 0 0 0
0 0 0 0 0 0 0 0 0 0 0 0 0 1 2 3 1 0 0 1 1 0 0 0 0 0 0 0 0 0 0 0 0 0 0 0 0 0 0 0 0 0 0 0 0 0 0 0 0
0 0 0 0 0 0 0 0 0 0 0 0 0 1 2 2 1 0 0 0 0 0 0 0 0 0 0 0 0 0 0 0 0 0 0 0 0 0 0 0 0 0 0 0 0 0 0 0 0
0 0 0 0 0 0 0 0 0 0 0 0 0 0 1 1 1 0 0 0 0 0 0 0 0 0 0 0 0 0 0 0 0 0 0 0 0 0 0 0 0 0 0 0 0 0 0 0 0
0 0 0 0 0 0 0 0 0 0 0 0 0 0 0 0 0 0 0 0 0 0 0 0 0 0 0 0 0 0 0 0 0 0 0 0 0 0 0 0 0 0 0 0 0 0 0 0 0
0 0 0 0 0 0 0 0 0 0 0 0 0 1 0 0 0 0 0 0 0 0 0 0 0 0 0 1 0 0 0 0 0 0 0 0 0 0 0 0 0 0 0 0 0 0 0 0 0
0 0 0 0 0 0 0 0 0 0 0 0 0 0 0 0 0 0 0 0 0 0 0 0 0 0 0 0 0 0 0 0 0 0 0 0 0 0 0 0 0 0 0 0 0 0 0 0 0
0 0 0 0 0 0 0 0 0 0 0 0 0 0 0 0 0 0 0 0 0 0 0 0 0 0 0 0 0 0 0 0 0 0 0 0 0 0 0 0 0 0 0 0 0 0 0 0 0
0 0 0 0 0 0 0 0 0 0 0 0 0 0 0 0 0 0 0 0 0 0 0 0 0 0 0 0 0 0 0 0 0 0 0 0 0 0 0 0 0 0 0 0 0 0 0 0 0
0 0 0 0 0 0 0 0 0 0 0 0 0 0 0 0 0 0 0 0 0 0 0 0 0 0 0 0 0 0 0 0 0 0 0 1 0 0 0 0 0 0 0 0 0 0 0 0 0
0 0 0 0 0 0 0 0 0 0 0 0 0 0 0 0 0 0 0 0 0 0 0 0 0 0 0 0 0 0 0 0 0 0 0 1 1 0 0 0 0 0 0 0 0 0 0 0 0
0 0 0 0 0 0 0 0 0 0 0 0 0 0 0 0 0 0 0 0 0 0 0 0 0 0 0 0 0 0 0 0 0 0 0 1 1 1 0 0 0 0 0 0 0 0 0 0 0
0 0 0 0 0 0 0 0 0 0 0 0 0 0 0 0 0 0 0 0 0 0 0 0 0 0 0 0 0 0 0 0 0 0 0 1 2 2 1 1 0 0 0 0 0 0 0 0 0
0 0 0 0 0 0 0 0 0 0 0 0 0 0 0 0 0 0 0 0 0 0 0 0 0 0 0 0 0 0 0 0 0 0 0 0 1 2 2 1 0 0 0 0 0 0 0 0 0
0 0 0 0 0 0 0 0 0 0 0 0 0 0 0 0 0 0 0 0 0 0 0 0 0 0 0 0 0 0 0 0 0 0 0 0 0 1 1 1 0 0 0 0 0 0 0 0 0
0 0 0 0 0 0 0 0 0 0 0 0 0 0 0 0 0 0 0 0 0 0 0 0 0 0 0 0 0 0 0 0 0 0 0 0 0 0 0 0 0 0 0 0 0 0 0 0 0
0 0 0 0 0 0 0 0 0 0 0 0 0 0 0 0 0 0 0 0 0 0 0 0 0 0 0 0 0 0 0 0 0 0 0 0 0 0 0 0 0 0 0 0 0 0 0 0 0
0 0 0 0 0 0 0 0 0 0 0 0 0 0 0 0 0 0 0 0 0 0 0 0 0 0 0 0 0 0 0 0 0 0 0 0 0 0 0 0 0 0 0 0 0 0 0 0 0
0 0 0 0 0 0 0 0 0 0 0 0 0 0 0 0 0 0 0 0 0 0 0 0 0 0 0 0 0 0 0 0 0 0 0 0 0 0 0 0 0 0 0 0 0 0 0 0 0
0 0 0 0 0 0 0 0 0 0 0 0 0 0 0 0 0 0 0 0 0 0 0 0 0 0 0 0 0 0 0 0 0 0 0 0 0 0 0 0 0 0 0 0 0 0 0 0 0
0 0 0 0 0 0 0 0 0 0 0 0 0 0 0 0 0 0 0 0 0 0 0 0 0 0 0 0 0 0 0 0 0 0 0 0 0 0 0 0 0 0 0 0 0 0 0 0 0
Wind_Speed
12 5 2 4 7 6 1 1 0 1 2 2 3 4 5 4 2 2 2 2 2 1 1 2 4 6 7 8 9 9 9 9 9 10 11 10 10 10 10 10 9 9 9 10 10 10 10 9 9
4 3 5 6 6 2 1 1 1 1 1 2 4 4 5 3 3 2 2 3 2 2 2 3 5 6 7 8 8 8 8 9 9 9 9 9 9 9 9 9 8 8 8 8 9 9 9 9 9
3 3 5 6 4 4 2 0 0 2 3 3 4 4 3 2 3 2 3 3 3 3 3 3 6 7 7 7 7 8 8 8 8 9 9 9 8 8 8 8 7 7 7 7 8 8 8 8 8
3 5 6 6 2 1 0 2 1 1 3 5 3 4 3 4 2 2 2 3 4 4 4 4 6 7 7 7 7 7 7 7 7 8 8 8 7 7 7 7 6 6 6 6 7 7 7 7 7
4 5 5 3 1 0 1 2 2 3 3 4 3 3 2 4 4 4 4 4 5 4 4 4 7 7 7 7 7 7 7 7 7 7 7 7 7 7 6 6 6 6 6 6 6 6 7 6 7
5 5 4 2 2 0 1 3 2 3 3 3 3 3 2 4 5 4 4 5 4 4 4 4 6 7 7 8 8 7 7 7 7 7 7 7 7 7 6 5 5 5 5 5 6 6 6 5 6
5 5 4 3 2 0 1 2 3 2 3 2 1 3 1 4 4 3 4 5 5 5 5 4 4 5 7 7 7 8 8 8 7 7 6 6 6 6 6 6 5 4 5 5 5 6 6 5 6
4 6 3 2 3 1 1 2 2 2 1 2 2 3 0 2 3 4 5 5 5 6 5 5 5 5 4 4 7 7 8 7 7 7 7 6 5 5 6 6 6 5 5 5 5 5 5 5 5
4 5 3 3 4 2 1 2 2 2 3 3 3 2 1 3 4 4 5 5 5 5 5 5 5 5 4 4 5 5 6 6 6 5 6 5 3 3 3 5 6 6 5 5 5 5 5 6 5
6 4 3 1 2 3 2 2 1 3 3 2 3 4 4 4 5 5 5 4 4 4 4 4 4 4 4 3 3 3 3 3 3 3 3 3 2 2 3 4 5 5 5 5 5 5 6 5 3
5 3 1 2 1 2 3 2 2 3 1 0 1 2 3 4 4 4 3 3 2 3 3 4 4 3 3 2 2 2 2 2 3 4 3 2 2 2 2 2 3 3 4 3 4 4 3 3 2
5 3 2 1 1 2 2 2 2 2 1 1 1 3 3 3 2 1 1 2 2 3 3 3 3 3 3 2 2 2 2 2 2 3 4 2 1 2 2 1 2 2 2 2 2 2 3 3 3
3 2 2 3 5 4 4 2 2 1 1 2 4 4 3 2 1 2 2 2 3 3 3 3 3 3 2 2 2 2 2 2 2 2 3 3 2 2 1 1 1 1 1 1 2 2 2 2 2
3 3 2 3 3 2 4 2 1 1 2 3 4 3 2 2 1 2 2 2 2 3 3 2 3 3 2 2 1 1 2 2 2 2 3 3 2 2 1 2 2 1 1 1 1 1 1 1 2
2 4 4 3 2 1 2 3 0 1 2 2 2 1 0 0 1 1 0 0 1 2 2 2 2 2 2 2 1 2 2 2 2 2 3 3 2 2 1 1 1 2 2 1 1 2 2 3 3
3 4 2 3 2 2 2 2 2 0 2 0 0 0 1 1 1 1 2 1 1 2 2 2 2 2 2 1 1 1 1 1 1 2 2 3 3 2 2 2 1 2 2 2 2 2 2 2 2
4 2 0 2 3 2 2 3 3 0 1 1 2 1 1 1 1 2 2 2 1 1 2 2 1 1 1 1 1 1 1 2 1 2 2 3 3 3 2 1 2 2 2 2 2 2 2 2 2
2 1 1 2 2 2 1 3 4 1 1 2 2 2 2 2 3 2 1 1 1 2 2 2 1 1 1 0 1 1 2 2 1 2 2 3 3 3 2 2 2 2 2 2 2 3 3 2 2
3 3 1 2 2 1 2 5 6 3 1 3 3 3 3 4 3 2 1 2 2 3 2 2 1 1 1 0 0 0 1 1 1 2 3 3 3 3 2 2 2 2 2 2 2 2 3 3 2
3 2 1 2 2 1 2 6 5 3 3 3 4 4 4 3 3 2 2 1 1 2 2 1 1 1 1 1 1 1 1 0 1 1 2 3 3 2 2 2 2 2 1 2 3 3 2 2 2
3 1 1 1 3 3 3 6 3 2 1 2 2 2 2 3 3 2 2 2 2 2 2 1 1 1 1 0 1 1 1 1 1 2 2 2 2 2 2 2 1 1 1 1 2 2 2 1 1
0 1 1 1 2 3 3 4 5 3 3 3 3 3 3 4 3 2 2 2 2 3 2 1 1 1 1 1 1 2 1 1 1 0 1 1 2 2 2 2 2 1 1 1 1 1 1 1 0
1 0 1 1 1 2 2 1 8 2 3 5 5 4 4 4 4 3 3 3 2 2 1 1 1 1 1 0 1 2 1 1 0 0 1 1 2 2 2 2 1 1 1 1 1 1 1 1 1
1 2 3 3 3 2 1 1 8 4 5 4 4 3 3 3 3 3 2 1 1 2 2 1 0 1 1 0 1 2 2 1 0 0 1 1 1 1 2 2 2 1 1 1 1 2 2 1 1
3 4 4 5 4 4 1 2 10 6 4 4 4 4 3 2 2 2 2 2 2 2 2 1 1 1 1 1 1 2 2 2 2 2 1 1 0 1 1 1 1 1 1 1 1 2 2 1 1
0 3 5 3 3 5 2 6 9 4 3 3 3 3 2 2 2 2 3 3 3 3 2 2 1 2 1 1 1 1 1 1 2 2 1 1 1 1 1 1 1 1 1 1 1 1 1 1 1
3 2 2 5 2 2 6 7 9 2 2 2 2 2 3 3 3 3 3 2 2 3 3 3 2 2 2 1 1 1 1 2 2 1 1 1 1 0 1 1 1 1 1 1 1 1 0 0 0
2 5 4 4 2 3 7 5 6 4 4 3 3 4 5 4 4 3 3 3 3 3 3 2 2 3 2 2 1 1 1 2 2 1 1 1 1 1 1 0 0 1 1 0 1 0 0 0 1
2 3 4 3 3 4 4 9 6 6 5 5 6 5 5 5 5 4 3 3 3 2 2 2 3 3 2 2 1 1 1 1 1 2 2 2 1 1 1 1 0 0 1 0 1 1 1 1 1
2 4 5 3 3 3 3 11 3 4 4 4 5 5 4 4 4 4 3 2 2 3 3 3 3 3 3 2 2 2 2 1 1 2 2 2 2 2 2 1 1 1 1 1 1 1 1 2 2
Wind_Direction
332 333 39 55 56 55 85 304 37 58 45 32 40 80 103 96 107 125 348 17 23 47 32 55 64 83 89 92 95 94 95 95 93 93 91 91 91 90 87 83 79 79 80 82 83 83 79 75 73
322 347 51 58 85 96 271 283 64 59 110 95 59 61 70 60 35 34 355 346 30 53 55 59 65 80 87 88 92 96 95 92 91 93 92 89 90 90 87 83 80 79 81 82 83 83 79 73 69
328 43 73 73 99 164 192 322 194 29 51 59 69 55 70 38 11 359 343 2 42 59 51 53 66 77 85 88 86 90 92 92 92 93 91 87 85 86 86 83 78 77 79 81 81 80 78 72 67
52 48 57 75 123 194 209 329 309 83 46 37 80 69 59 35 359 348 26 51 57 52 46 53 65 73 76 79 84 86 87 88 91 93 93 90 87 84 83 84 78 74 78 80 78 79 78 74 69
57 73 68 66 180 132 12 345 24 63 53 25 61 88 51 14 24 54 65 64 64 49 40 47 61 66 69 72 76 77 80 79 80 85 86 88 86 83 79 79 76 76 75 77 76 78 73 70 70
57 69 96 179 197 192 22 359 39 52 54 36 56 90 77 27 37 50 59 58 57 57 47 44 52 54 59 62 63 69 68 69 71 76 79 77 76 75 72 70 69 75 74 74 76 72 69 68 68
95 96 139 164 157 200 14 25 64 72 62 15 44 96 54 22 22 51 59 56 49 50 50 42 41 45 49 53 55 60 60 61 63 66 71 69 67 65 61 59 55 59 68 74 74 68 63 65 61
105 101 111 156 163 213 351 56 61 61 97 15 70 108 124 339 16 59 66 61 52 45 39 35 34 36 37 43 51 53 56 56 56 59 61 63 61 57 52 49 47 45 52 60 62 65 62 59 53
70 82 156 189 178 187 92 96 40 48 81 51 50 62 49 64 54 67 64 52 48 42 33 30 32 31 32 41 46 45 49 49 50 50 54 51 42 45 45 39 43 41 42 45 48 55 56 53 50
61 115 192 187 160 138 91 90 91 74 55 49 44 37 53 73 69 64 59 50 37 31 27 25 26 29 32 37 41 37 40 40 40 38 41 41 41 39 41 35 34 33 35 37 40 50 51 48 38
72 125 144 55 85 111 95 65 42 115 69 219 169 96 70 74 66 63 57 56 42 24 23 16 15 24 33 30 40 35 31 33 32 31 33 40 44 37 37 34 23 21 26 26 28 36 38 42 38
88 51 86 46 33 64 85 92 62 66 240 330 124 119 102 87 69 60 51 35 34 34 18 12 10 16 24 33 36 42 36 34 33 26 25 36 41 34 31 41 27 25 19 23 28 37 37 44 45
84 95 65 69 61 70 81 82 106 357 315 55 86 88 91 85 50 27 43 43 29 23 8 8 7 11 12 31 28 42 39 40 31 29 27 30 35 34 25 26 28 23 21 26 29 38 40 51 54
105 98 72 42 51 46 86 59 69 302 85 81 87 92 100 95 69 51 39 24 8 347 344 354 8 9 11 28 28 36 34 32 35 31 24 29 28 20 30 32 24 11 9 19 47 50 58 53 65
99 79 48 28 32 28 57 13 340 249 100 89 99 122 117 21 57 72 324 339 328 320 332 345 16 16 17 23 36 51 35 32 30 20 17 21 30 21 20 45 22 2 3 28 54 51 57 59 59
57 59 38 348 24 356 91 265 273 288 105 116 220 215 252 282 271 285 297 310 3 335 334 333 8 18 12 19 51 69 55 47 31 19 17 12 19 28 31 38 16 3 27 39 56 57 62 54 50
40 73 299 322 11 24 108 245 273 343 118 230 251 249 241 269 286 272 277 292 326 338 317 319 359 9 351 3 57 61 59 50 37 28 25 10 12 19 32 42 21 26 46 43 46 47 63 62 48
186 154 205 271 331 39 35 269 285 289 181 237 256 266 258 261 268 276 291 306 329 333 319 299 318 331 316 6 69 62 58 40 32 32 26 16 13 17 19 35 31 43 57 43 47 70 61 63 53
130 136 168 273 336 22 265 276 281 281 260 257 261 259 255 262 275 302 349 343 358 349 333 300 324 314 302 177 143 105 34 11 18 29 29 23 19 20 32 23 38 45 63 56 55 77 72 55 42
85 99 32 317 357 13 305 290 277 259 236 236 239 246 255 271 304 320 343 346 348 322 298 277 302 289 248 217 182 159 130 35 5 14 27 24 24 24 37 42 39 41 68 72 64 71 83 64 40
44 136 216 284 341 25 347 313 294 297 274 278 255 247 254 244 259 287 300 287 298 296 292 274 269 293 273 174 99 78 70 46 6 3 9 9 14 25 39 43 47 35 59 85 90 85 94 105 32
14 300 153 59 39 340 28 310 294 298 310 288 269 261 259 259 255 262 275 287 283 279 290 282 280 314 338 178 139 132 148 189 258 297 341 359 15 18 27 35 48 58 54 68 79 73 85 107 80
165 52 97 75 80 3 16 303 290 326 292 274 262 253 254 253 245 249 252 259 275 293 300 297 327 335 354 273 177 157 171 202 216 353 0 10 8 6 11 28 38 55 58 55 59 47 67 91 116
155 64 62 50 58 342 270 192 283 249 236 262 267 255 251 251 249 255 266 280 299 322 317 335 348 302 329 109 179 172 182 181 147 316 327 342 351 359 13 23 28 41 55 62 61 58 62 64 68
53 78 34 7 6 266 258 232 255 257 241 233 248 257 258 245 239 266 283 286 286 288 281 280 275 288 297 247 213 198 200 195 200 212 225 258 338 344 346 21 25 27 45 59 68 69 54 51 56
112 119 139 188 247 289 307 245 256 262 268 256 252 260 260 248 238 244 247 247 259 266 265 255 245 257 267 244 237 231 210 201 208 203 199 209 223 249 351 27 22 14 44 59 73 76 71 66 73
120 120 129 121 83 306 278 281 296 259 276 269 259 267 262 254 248 246 250 246 253 263 261 248 243 251 250 232 209 215 209 201 202 197 182 192 222 224 78 52 28 6 4 85 100 95 153 108 156
109 137 102 115 127 290 296 277 258 255 247 256 255 251 256 256 256 253 250 253 257 255 260 261 246 247 250 235 219 210 215 208 200 183 192 202 223 202 128 93 52 18 358 48 111 110 239 162 263
122 116 112 115 150 165 279 274 227 219 218 225 242 247 248 248 248 247 248 252 254 260 258 253 250 252 253 240 224 220 229 206 190 198 216 216 215 199 181 191 200 289 298 285 141 219 247 251 272
183 172 154 157 221 196 223 268 261 224 226 228 248 259 258 252 249 247 247 251 253 254 255 253 251 248 249 238 219 221 226 212 203 216 223 214 220 213 197 195 210 233 253 246 217 230 235 243 255